Starlink 31530

operational
NORAD ID: 59322 Int'l Des: 2024-057 Owner: SPXS Country: US Constellation: starlink
LEOCIRCULAR

关于 Starlink 31530

正在加载描述...

实时位置

正在加载3D地球...

即将过境

高度历史

Altitude vs Time

uPlot chart will show altitude changes over time

两行轨道根数

1 59322U 24057C 25304.99556391 -.00002198 00000-0 -70412-4 0 9990
2 59322 43.0029 194.1619 0001574 277.0368 83.0304 15.27562735 90158
Epoch: Oct 31, 2025 • Age: 40 hours

当前状态

高度 490.3 km
速度 7.62 km/s
星下点 -28.99°S, 117.13°E
发射日期 Mar 25, 2024
运行时间 1.6 years
类型 internet

技术详情

分类 Payload
质量 730.00 kg
干质量 700.00 kg
总质量 730.00 kg
长度 0.30 m
直径 4.10 m
跨度 29.00 m
形状 Box + pan
制造商 SPXS
平台类型 Starlink V2M
阶段状态 In Orbit
所有者/国家 SPXS/US

大型星座

Loading constellations...